GW6787 Weather Reports


time (UTC)temp
F
wind
direction
speed
knots
gust
knots
rain 1hr
in
rain 24hr
in
rain mn
in
humidity
%
barometer
mb
20260510175504 51 82 2.6 9.6 0.00 0.00 0.00 59 1015.5
20260510175003 51 36 3.5 9.6 0.00 0.00 0.00 60 1015.5
20260510174513 51 69 1.7 7.8 0.00 0.00 0.00 60 1015.6
20260510174007 51 61 2.6 7.0 0.00 0.00 0.00 61 1015.6
20260510173506 51 5 1.7 10.4 0.00 0.00 0.00 62 1015.6
20260510173009 50 336 2.6 10.4 0.00 0.00 0.00 63 1015.6
20260510172503 50 61 2.6 8.7 0.00 0.00 0.00 63 1015.7
20260510172011 50 321 2.6 8.7 0.00 0.00 0.00 64 1015.7
20260510171505 50 24 2.6 9.6 0.00 0.00 0.00 64 1015.7
20260510171004 50 61 1.7 9.6 0.00 0.00 0.00 63 1015.7
20260510170504 50 5 1.7 12.2 0.00 0.00 0.00 64 1015.8
20260510170014 50 49 4.3 10.4 0.00 0.00 0.00 63 1015.9
20260510165503 51 58 2.6 10.4 0.00 0.00 0.00 63 1015.9
20260510165005 50 43 3.5 10.4 0.00 0.00 0.00 65 1015.9
20260510164529 51 76 1.7 10.4 0.00 0.00 0.00 65 1015.9
20260510164006 51 47 3.5 9.6 0.00 0.00 0.00 64 1015.9
20260510163504 51 23 3.5 9.6 0.00 0.00 0.00 64 1016.0
20260510163020 51 25 2.6 9.6 0.00 0.00 0.00 64 1016.1
20260510162506 51 80 3.5 8.7 0.00 0.00 0.00 62 1016.2
20260510162006 52 266 2.6 10.4 0.00 0.00 0.00 61 1016.2
20260510161515 52 46 3.5 10.4 0.00 0.00 0.00 61 1016.3
20260510161007 52 346 3.5 11.3 0.00 0.00 0.00 62 1016.4
20260510160509 52 74 2.6 11.3 0.00 0.00 0.00 63 1016.4
20260510160011 52 15 2.6 9.6 0.00 0.00 0.00 65 1016.5
20260510155508 52 38 3.5 9.6 0.00 0.00 0.00 65 1016.6
20260510155004 52 28 4.3 11.3 0.00 0.00 0.00 64 1016.6
20260510154508 52 54 5.2 11.3 0.00 0.00 0.00 64 1016.6
20260510154005 52 116 4.3 10.4 0.00 0.00 0.00 64 1016.6
20260510153507 52 46 3.5 9.6 0.00 0.00 0.00 65 1016.6
20260510153026 53 325 3.5 9.6 0.00 0.00 0.00 65 1016.7
20260510152506 52 296 4.3 13.0 0.00 0.00 0.00 65 1016.7
20260510152010 52 113 3.5 13.0 0.00 0.00 0.00 65 1016.7
20260510151522 52 77 3.5 11.3 0.00 0.00 0.00 64 1017.0
20260510151006 53 47 2.6 11.3 0.00 0.00 0.00 65 1017.0
20260510150504 52 53 2.6 10.4 0.00 0.00 0.00 67 1017.1
20260510150023 52 65 4.3 10.4 0.00 0.00 0.00 66 1017.2
20260510145514 52 61 3.5 10.4 0.00 0.00 0.00 66 1017.3
20260510145005 52 76 3.5 10.4 0.00 0.00 0.00 67 1017.3
20260510144510 52 86 2.6 10.4 0.00 0.00 0.00 66 1017.4
20260510144003 52 323 1.7 10.4 0.00 0.00 0.00 66 1017.5
20260510143507 53 80 3.5 10.4 0.00 0.00 0.00 66 1017.5
20260510143016 53 47 3.5 9.6 0.00 0.00 0.00 65 1017.6
20260510142508 53 48 3.5 11.3 0.00 0.00 0.00 65 1017.5
20260510142010 53 334 3.5 11.3 0.00 0.00 0.00 65 1017.6
20260510141513 53 32 3.5 11.3 0.00 0.00 0.00 65 1017.7
20260510141007 53 11 4.3 10.4 0.00 0.00 0.00 65 1017.7
20260510140502 53 97 4.3 10.4 0.00 0.00 0.00 65 1017.8
20260510140005 54 37 3.5 12.2 0.00 0.00 0.00 65 1017.9
20260510135502 54 42 4.3 12.2 0.00 0.00 0.00 65 1017.9
20260510135002 54 42 3.5 10.4 0.00 0.00 0.00 65 1017.9
20260510134506 54 289 2.6 13.0 0.00 0.00 0.00 67 1017.8
20260510134006 53 13 5.2 13.0 0.00 0.00 0.00 64 1017.8
20260510133504 55 71 4.3 11.3 0.00 0.00 0.00 63 1018.0
20260510133002 55 76 3.5 10.4 0.00 0.00 0.00 65 1017.9
20260510132502 54 343 4.3 12.2 0.00 0.00 0.00 67 1017.9
20260510132006 53 98 3.5 12.2 0.00 0.00 0.00 66 1018.1
20260510131502 53 351 5.2 11.3 0.00 0.00 0.00 66 1018.1
20260510131002 53 10 3.5 12.2 0.00 0.00 0.00 67 1018.0
20260510130502 53 23 4.3 12.2 0.00 0.00 0.00 67 1018.1
20260510130007 53 17 5.2 14.8 0.00 0.00 0.00 66 1018.1
20260510125503 53 123 4.3 14.8 0.00 0.00 0.00 65 1018.1
20260510125003 54 84 4.3 13.0 0.00 0.00 0.00 65 1018.2
20260510124511 54 340 5.2 13.0 0.00 0.00 0.00 65 1018.3
20260510124002 54 360 5.2 13.0 0.00 0.00 0.00 66 1018.2
20260510123503 53 5 4.3 13.0 0.00 0.00 0.00 68 1018.2
20260510123014 53 80 4.3 12.2 0.00 0.00 0.00 67 1018.2
20260510122502 53 9 4.3 12.2 0.00 0.00 0.00 67 1018.3
20260510122003 53 62 3.5 11.3 0.00 0.00 0.00 67 1018.3
20260510121509 53 297 3.5 10.4 0.00 0.00 0.00 69 1018.3
20260510121006 53 41 2.6 10.4 0.00 0.00 0.00 71 1018.4
20260510120503 53 24 4.3 10.4 0.00 0.00 0.00 71 1018.4
20260510120004 53 341 1.7 10.4 0.00 0.00 0.00 71 1018.6
20260510115502 53 13 2.6 9.6 0.00 0.00 0.00 71 1018.5
20260510115002 53 32 3.5 11.3 0.00 0.00 0.00 71 1018.5
20260510114505 53 64 1.7 13.9 0.00 0.00 0.00 72 1018.6
20260510114002 53 13 4.3 13.9 0.00 0.00 0.00 72 1018.6
20260510113504 53 48 3.5 9.6 0.00 0.00 0.00 71 1018.7
20260510113005 53 61 1.7 9.6 0.00 0.00 0.00 73 1018.7
20260510112503 53 145 2.6 13.9 0.00 0.00 0.00 72 1018.7
20260510112004 53 329 3.5 13.9 0.00 0.00 0.00 72 1018.8
20260510111515 53 98 2.6 10.4 0.00 0.00 0.00 72 1018.8
20260510111001 53 11 2.6 13.9 0.00 0.00 0.00 71 1018.9
20260510110507 53 73 2.6 13.9 0.00 0.00 0.00 71 1019.0
20260510110014 52 29 3.5 7.8 0.00 0.00 0.00 71 1019.0
20260510105503 52 265 2.6 7.8 0.00 0.00 0.00 71 1019.1
20260510105003 52 313 3.5 7.8 0.00 0.00 0.00 71 1019.1
20260510104502 52 23 2.6 9.6 0.00 0.00 0.00 72 1019.1
20260510104002 52 35 3.5 11.3 0.00 0.00 0.00 71 1019.0
20260510103502 52 352 4.3 11.3 0.00 0.00 0.00 70 1019.0
20260510103006 52 37 1.7 8.7 0.00 0.00 0.00 72 1019.0
20260510102503 52 56 2.6 8.7 0.00 0.00 0.00 72 1018.9
20260510102003 52 90 2.6 11.3 0.00 0.00 0.00 72 1019.1
20260510101508 52 5 4.3 11.3 0.00 0.00 0.00 71 1019.1
20260510101008 53 62 4.3 10.4 0.00 0.00 0.00 71 1019.1
20260510100507 53 352 4.3 10.4 0.00 0.00 0.00 70 1019.1
20260510100005 53 65 5.2 11.3 0.00 0.00 0.00 68 1019.3
20260510095505 53 313 3.5 11.3 0.00 0.00 0.00 70 1019.0
20260510095006 53 45 4.3 11.3 0.00 0.00 0.00 68 1019.2
20260510094519 54 342 3.5 12.2 0.00 0.00 0.00 68 1019.1
20260510094003 54 22 5.2 12.2 0.00 0.00 0.00 68 1019.1
20260510093507 55 79 4.3 12.2 0.00 0.00 0.00 67 1019.1
20260510093004 55 305 3.5 9.6 0.00 0.00 0.00 67 1019.2
20260510092503 55 106 2.6 12.2 0.00 0.00 0.00 68 1019.1
20260510092002 55 350 3.5 12.2 0.00 0.00 0.00 68 1019.1
20260510091520 55 87 1.7 14.8 0.00 0.00 0.00 70 1019.2
20260510091003 55 342 6.1 14.8 0.00 0.00 0.00 69 1019.2
20260510090503 55 34 1.7 12.2 0.00 0.00 0.00 70 1019.2
20260510090014 55 352 1.7 13.0 0.00 0.00 0.00 70 1019.2
20260510085506 55 66 5.2 13.0 0.00 0.00 0.00 68 1019.2
20260510085003 55 340 3.5 13.0 0.00 0.00 0.00 70 1019.2
20260510084507 55 40 4.3 13.0 0.00 0.00 0.00 70 1019.1
20260510084009 55 322 4.3 11.3 0.00 0.00 0.00 70 1019.2
20260510083510 55 149 5.2 13.0 0.00 0.00 0.00 69 1019.2
20260510083006 56 32 5.2 11.3 0.00 0.00 0.00 69 1019.2
20260510082503 55 56 3.5 10.4 0.00 0.00 0.00 70 1019.3
20260510082003 55 59 3.5 11.3 0.00 0.00 0.00 71 1019.2
20260510081522 54 43 2.6 13.9 0.00 0.00 0.00 72 1019.2
20260510081003 53 109 4.3 13.9 0.00 0.00 0.00 72 1019.3
20260510080503 54 315 4.3 13.9 0.00 0.00 0.00 72 1019.4
20260510080012 54 61 2.6 11.3 0.00 0.00 0.00 73 1019.2
20260510075503 54 22 2.6 9.6 0.00 0.00 0.00 74 1019.4
20260510075004 54 324 3.5 8.7 0.00 0.00 0.00 74 1019.3
20260510074516 54 88 2.6 8.7 0.00 0.00 0.00 75 1019.3
20260510074011 53 331 3.5 9.6 0.00 0.00 0.00 75 1019.2
20260510073502 53 352 2.6 10.4 0.00 0.00 0.00 75 1019.2
20260510073024 53 352 3.5 10.4 0.00 0.00 0.00 76 1019.2
20260510072507 53 16 3.5 10.4 0.00 0.00 0.00 78 1019.2
20260510072002 53 42 2.6 9.6 0.00 0.00 0.00 78 1019.2
20260510071517 53 59 2.6 12.2 0.00 0.00 0.00 78 1019.3
20260510071009 53 51 2.6 12.2 0.00 0.00 0.00 78 1019.1
20260510070503 53 71 3.5 12.2 0.00 0.00 0.00 78 1019.1
20260510070011 53 31 4.3 12.2 0.00 0.00 0.00 78 1019.0
20260510065503 52 32 2.6 12.2 0.00 0.00 0.00 80 1018.9
20260510065003 52 40 3.5 11.3 0.00 0.00 0.00 79 1019.0
20260510064539 52 5 3.5 11.3 0.00 0.00 0.00 80 1018.9
20260510064003 52 64 4.3 11.3 0.00 0.00 0.00 80 1018.8
20260510063507 52 22 2.6 10.4 0.00 0.00 0.00 81 1018.7
20260510063022 52 320 3.5 10.4 0.00 0.00 0.00 81 1018.7
20260510062503 52 317 3.5 11.3 0.00 0.00 0.00 81 1018.7
20260510062007 52 51 4.3 11.3 0.00 0.00 0.00 81 1018.7
20260510061535 52 58 3.5 9.6 0.00 0.00 0.00 80 1018.7
20260510061007 52 327 2.6 8.7 0.00 0.00 0.00 81 1018.6
20260510060504 52 5 2.6 10.4 0.00 0.00 0.00 82 1018.6
20260510060031 52 49 3.5 13.0 0.00 0.00 0.00 82 1018.5
20260510055507 52 65 3.5 13.0 0.00 0.00 0.00 82 1018.5
20260510055004 52 23 3.5 9.6 0.00 0.00 0.00 83 1018.4
20260510054514 51 360 3.5 7.0 0.00 0.00 0.00 83 1018.4
20260510054007 51 51 1.7 10.4 0.00 0.00 0.00 83 1018.5
20260510053508 51 111 3.5 10.4 0.00 0.00 0.00 83 1018.6
20260510053016 51 319 2.6 10.4 0.00 0.00 0.00 83 1018.5
20260510052507 51 42 3.5 10.4 0.00 0.00 0.00 83 1018.5
20260510052012 51 36 2.6 10.4 0.00 0.00 0.00 83 1018.4
20260510051509 51 49 1.7 8.7 0.00 0.00 0.00 83 1018.5
20260510051007 51 67 2.6 9.6 0.00 0.00 0.00 83 1018.6
20260510050502 51 327 1.7 9.6 0.00 0.00 0.00 84 1018.6
20260510050004 50 63 4.3 8.7 0.00 0.00 0.00 83 1018.7
20260510045506 50 83 1.7 9.6 0.00 0.00 0.00 84 1018.7
20260510045005 50 53 2.6 9.6 0.00 0.00 0.00 83 1018.7
20260510044508 50 18 1.7 8.7 0.00 0.00 0.00 83 1018.7
20260510044008 50 9 0.9 10.4 0.00 0.00 0.00 83 1018.8
20260510043508 50 36 3.5 10.4 0.00 0.00 0.00 83 1018.9
20260510043018 50 86 1.7 7.0 0.00 0.00 0.00 83 1018.9
20260510042503 50 55 2.6 5.2 0.00 0.00 0.00 83 1019.0
20260510042009 50 47 1.7 7.0 0.00 0.00 0.00 83 1018.9
20260510041521 50 297 1.7 7.8 0.00 0.00 0.00 83 1018.9
20260510041003 50 132 2.6 7.8 0.00 0.00 0.00 83 1018.9
20260510040502 50 66 2.6 7.8 0.00 0.00 0.00 83 1018.9
20260510040018 50 10 1.7 7.0 0.00 0.00 0.00 83 1018.9
20260510035506 50 333 1.7 7.0 0.00 0.00 0.00 83 1018.9
20260510035003 50 39 1.7 7.8 0.00 0.00 0.00 83 1018.9
20260510034508 50 332 1.7 7.0 0.00 0.00 0.00 82 1018.8
20260510034005 50 32 1.7 7.0 0.00 0.00 0.00 82 1018.9
20260510033503 50 50 1.7 7.0 0.00 0.00 0.00 83 1018.9
20260510033014 50 51 1.7 6.1 0.00 0.00 0.00 83 1019.1
20260510032506 50 138 0.9 7.0 0.00 0.00 0.00 84 1019.1
20260510032007 50 38 1.7 7.0 0.00 0.00 0.00 84 1019.2
20260510031510 50 49 1.7 7.0 0.00 0.00 0.00 85 1019.3
20260510031005 50 284 0.9 7.0 0.00 0.00 0.00 86 1019.3
20260510030507 50 352 1.7 7.0 0.00 0.00 0.00 86 1019.4
20260510030024 50 57 1.7 4.3 0.00 0.00 0.00 86 1019.4
20260510025504 50 360 1.7 4.3 0.00 0.00 0.00 87 1019.5
20260510025007 50 15 0.9 4.3 0.00 0.00 0.00 87 1019.5
20260510024531 50 30 1.7 5.2 0.00 0.00 0.00 87 1019.4
20260510024003 50 50 1.7 5.2 0.00 0.00 0.00 88 1019.4
20260510023503 50 5 1.7 5.2 0.00 0.00 0.00 88 1019.2
20260510023012 50 321 0.9 4.3 0.00 0.00 0.00 89 1019.2
20260510022503 50 17 0.9 3.5 0.00 0.00 0.00 89 1019.2
20260510022007 49 325 0.9 4.3 0.00 0.00 0.00 89 1019.3
20260510021515 49 329 0.9 4.3 0.00 0.00 0.00 89 1019.2
20260510021006 49 321 0.9 5.2 0.00 0.00 0.00 89 1019.2
20260510020503 49 321 0.9 5.2 0.00 0.00 0.00 89 1019.2
20260510020016 49 47 1.7 4.3 0.00 0.00 0.00 89 1019.2
20260510015509 49 331 1.7 5.2 0.00 0.00 0.00 89 1019.2
20260510015010 49 340 0.9 6.1 0.00 0.00 0.00 89 1019.2
20260510014516 49 360 1.7 6.1 0.00 0.00 0.00 89 1019.2
20260510014006 49 61 1.7 5.2 0.00 0.00 0.00 89 1019.2
20260510013507 49 55 0.9 5.2 0.00 0.00 0.00 89 1019.2
20260510013028 50 53 1.7 5.2 0.00 0.00 0.00 89 1019.2
20260510012503 50 360 0.9 7.0 0.00 0.00 0.00 89 1019.2
20260510012003 50 5 0.9 7.8 0.00 0.00 0.00 89 1019.1
20260510011512 50 323 1.7 5.2 0.00 0.00 0.00 89 1019.2
20260510011003 50 313 1.7 4.3 0.00 0.00 0.00 90 1019.2
20260510010504 50 47 0.9 9.6 0.00 0.00 0.00 90 1019.2
20260510010020 50 5 2.6 9.6 0.00 0.00 0.00 90 1019.3
20260510005507 50 30 0.9 6.1 0.00 0.00 0.00 90 1019.3
20260510005006 50 40 1.7 6.1 0.00 0.00 0.00 90 1019.1
20260510004523 50 55 0.9 4.3 0.00 0.00 0.00 90 1019.2
20260510004015 50 36 0.9 5.2 0.00 0.00 0.00 90 1019.2
20260510003509 50 16 0.9 5.2 0.00 0.00 0.00 90 1019.1
20260510003020 50 42 1.7 5.2 0.00 0.00 0.00 90 1019.2
20260510002507 50 70 1.7 6.1 0.00 0.00 0.00 90 1019.3
20260510002010 50 324 0.9 6.1 0.00 0.00 0.00 91 1019.3
20260510001516 50 36 0.9 3.5 0.00 0.00 0.00 91 1019.4
20260510001004 50 360 1.7 3.5 0.00 0.00 0.00 91 1019.5
20260510000504 49 12 0.9 3.5 0.00 0.00 0.00 91 1019.6
20260510000011 49 326 0.9 1.7 0.00 0.00 0.00 90 1019.6
20260509235503 49 319 0.9 1.7 0.00 0.00 0.00 89 1019.5
20260509235007 49 312 0.0 1.7 0.00 0.00 0.00 88 1019.6
20260509234534 50 312 0.9 1.7 0.00 0.00 0.00 87 1019.7
20260509234002 50 296 0.0 1.7 0.00 0.00 0.00 87 1019.9
20260509233507 51 297 0.0 1.7 0.00 0.00 0.00 89 1019.9
20260509233038 51 327 0.0 1.7 0.00 0.00 0.00 90 1019.9
20260509232510 51 41 0.0 2.6 0.00 0.00 0.00 90 1019.9
20260509232007 51 19 0.0 2.6 0.00 0.00 0.00 90 1019.8
20260509231529 51 46 0.9 2.6 0.00 0.00 0.00 90 1019.7
20260509231010 51 352 0.9 2.6 0.00 0.00 0.00 89 1019.7
20260509230506 51 352 0.9 3.5 0.00 0.00 0.00 89 1019.7
20260509230024 51 5 0.9 3.5 0.00 0.00 0.00 89 1019.6
20260509225507 51 38 0.9 2.6 0.00 0.00 0.00 89 1019.6
20260509225009 51 40 0.0 2.6 0.00 0.00 0.00 89 1019.5
20260509224520 51 315 0.9 3.5 0.00 0.00 0.00 89 1019.4
20260509224008 51 9 0.9 3.5 0.00 0.00 0.00 89 1019.3
20260509223508 51 22 0.9 2.6 0.00 0.00 0.00 89 1019.3
20260509223017 51 82 0.9 1.7 0.00 0.00 0.00 89 1019.3
20260509222509 51 342 0.0 1.7 0.00 0.00 0.00 89 1019.4
20260509222009 51 340 0.9 1.7 0.00 0.00 0.00 88 1019.4
20260509221527 51 346 0.0 1.7 0.00 0.00 0.00 88 1019.4
20260509221007 51 346 0.0 1.7 0.00 0.00 0.00 88 1019.4
20260509220511 51 346 0.0 1.7 0.00 0.00 0.00 88 1019.4
20260509220029 51 352 0.0 2.6 0.00 0.00 0.00 88 1019.3
20260509215510 51 321 0.0 2.6 0.00 0.00 0.00 88 1019.2
20260509215012 51 352 0.9 2.6 0.00 0.00 0.00 88 1019.2
20260509214529 51 352 0.9 4.3 0.00 0.00 0.00 88 1019.3
20260509214007 52 13 0.0 4.3 0.00 0.00 0.00 88 1019.3
20260509213512 52 317 0.0 2.6 0.00 0.00 0.00 88 1019.3
20260509213022 52 59 0.0 2.6 0.00 0.00 0.00 88 1019.2
20260509212506 52 48 0.9 2.6 0.00 0.00 0.00 88 1019.2
20260509212014 52 52 0.9 2.6 0.00 0.00 0.00 88 1019.3
20260509211522 52 42 0.9 3.5 0.00 0.00 0.00 87 1019.3
20260509211008 52 29 0.0 3.5 0.00 0.00 0.00 88 1019.3
20260509210509 52 49 0.9 2.6 0.00 0.00 0.00 87 1019.3
20260509210025 52 12 0.0 1.7 0.00 0.00 0.00 87 1019.3
20260509205507 52 360 0.9 1.7 0.00 0.00 0.00 87 1019.4
20260509205011 52 24 0.0 3.5 0.00 0.00 0.00 87 1019.4
20260509204533 52 47 0.9 3.5 0.00 0.00 0.00 87 1019.3
20260509204009 52 65 0.9 3.5 0.00 0.00 0.00 87 1019.3
20260509203514 52 29 0.9 3.5 0.00 0.00 0.00 86 1019.3
20260509203036 52 75 0.0 2.6 0.00 0.00 0.00 86 1019.3
20260509202506 52 51 0.9 3.5 0.00 0.00 0.00 86 1019.3
20260509202008 52 16 0.9 3.5 0.00 0.00 0.00 86 1019.4
20260509201522 53 56 0.9 3.5 0.00 0.00 0.00 86 1019.2
20260509201008 53 352 0.0 3.5 0.00 0.00 0.00 85 1019.1
20260509200512 53 56 0.9 3.5 0.00 0.00 0.00 85 1019.1
20260509200026 53 53 0.9 3.5 0.00 0.00 0.00 85 1019.0
20260509195511 53 55 0.9 3.5 0.00 0.00 0.00 85 1018.9
20260509195015 53 34 0.9 2.6 0.00 0.00 0.00 85 1018.9
20260509194524 53 89 0.9 7.0 0.00 0.00 0.00 85 1018.8
20260509194009 53 37 0.9 7.0 0.00 0.00 0.00 85 1018.8
20260509193512 53 42 0.9 3.5 0.00 0.00 0.00 85 1018.8
20260509193022 53 74 0.9 4.3 0.00 0.00 0.00 85 1018.7
20260509192506 53 5 0.9 4.3 0.00 0.00 0.00 85 1018.7
20260509192012 54 78 0.9 4.3 0.00 0.00 0.00 85 1018.7
20260509191528 54 55 0.9 3.5 0.00 0.00 0.00 84 1018.6
20260509191009 54 42 0.9 3.5 0.00 0.00 0.00 84 1018.5
20260509190511 54 11 0.9 3.5 0.00 0.00 0.00 84 1018.5
20260509190029 54 111 0.9 5.2 0.00 0.00 0.00 84 1018.4
20260509185510 54 34 1.7 5.2 0.00 0.00 0.00 84 1018.4
20260509185010 55 328 0.9 3.5 0.00 0.00 0.00 84 1018.4
20260509184538 55 5 0.9 3.5 0.00 0.00 0.00 83 1018.4
20260509184010 55 58 0.9 3.5 0.00 0.00 0.00 83 1018.5
20260509183511 55 73 0.9 3.5 0.00 0.00 0.00 82 1018.5
20260509183033 55 19 0.9 4.3 0.00 0.00 0.00 82 1018.5
20260509182511 55 30 1.7 4.3 0.00 0.00 0.00 81 1018.6
20260509182010 56 44 0.9 7.0 0.00 0.00 0.00 80 1018.6
20260509181527 56 24 1.7 7.0 0.00 0.00 0.00 79 1018.6
20260509181011 56 51 0.9 5.2 0.00 0.00 0.00 78 1018.6
20260509180514 56 110 1.7 5.2 0.00 0.00 0.00 77 1018.6
20260509180024 57 62 1.7 5.2 0.00 0.00 0.00 75 1018.6